Location: Cussy
(47.0410°N, 4.6412°E)
Time: 13:50:49
(UTC+00:00)

SAR-Lupe-4 - Pass Details

Date: 30 November 2020
Orbit: 481 x 484 km, 98.2° (Epoch: 09 January)

Event Time Altitude Azimuth Distance (km) Brightness Sun altitude
Exits shadow 17:54:17 65° 68° (ENE) 537 3.4 -19.7°
Maximum altitude 17:54:33 69° 102° (ESE) 523 3.4 -19.8°
Drops below altitude 10° 17:58:07 10° 187° (S) 1,663 6.5 -20.4°
Sets 18:00:11 0° 190° (S) 2,538 7.5 -20.7°
